Regional Weather Roundup
Issued by NWS Charleston, WV

Home | Current Version | Previous Version | Graphics & Text | Print | Product List | Glossary On
Versions: 1 2 3 4 5 6 7 8 9 10 11 12 13 14 15 16 17 18 19 20 21 22 23 24 25 26 27 28 29 30 31 32 33 34 35 36 37 38 39 40 41 42 43 44 45 46 47 48 49 50
000
ASUS41 KRLX 270110
RWRRLX
West Virginia Regional Weather Roundup
National Weather Service Charleston WV
900 PM EDT FRI AUG 26 2016

Note: "fair" indicates few or no clouds below 12,000 feet with no
significant weather and/or obstructions to visibility.

WVZ003-270200-
Northern Panhandle of West Virginia

CITY           SKY/WX    TMP DP  RH WIND       PRES   REMARKS
WHEELING       CLEAR     80  63  55 NE6       30.14R
$$

WVZ009-270200-
Northwest West Virginia

CITY           SKY/WX    TMP DP  RH WIND       PRES   REMARKS
PARKERSBURG    CLEAR     80  71  74 CALM      30.14R
$$

WVZ006-270200-
Western West Virginia

CITY           SKY/WX    TMP DP  RH WIND       PRES   REMARKS
HUNTINGTON     CLEAR     82  75  79 CALM      30.11R
$$

WVZ015-270200-
West Central West Virginia

CITY           SKY/WX    TMP DP  RH WIND       PRES   REMARKS
CHARLESTON     PTCLDY    80  74  81 CALM      30.12R
$$

WVZ022-031-270200-
North Central West Virginia

CITY           SKY/WX    TMP DP  RH WIND       PRES   REMARKS
CLARKSBURG     PTCLDY    78  71  79 CALM      30.13R
MORGANTOWN     CLEAR     80  69  69 CALM      30.15R
$$

WVZ025-035-042-045-270200-
Southern West Virginia

CITY           SKY/WX    TMP DP  RH WIND       PRES   REMARKS
BECKLEY        CLEAR     75  69  81 CALM      30.21R
LOGAN            N/A     81  72  74 CALM      30.15R
BLUEFIELD      CLEAR     76  65  68 CALM      30.24R
LEWISBURG      CLEAR     73  68  82 CALM      30.19S
$$

WVZ047-270200-
Northern Mountains of West Virginia

CITY           SKY/WX    TMP DP  RH WIND       PRES   REMARKS
ELKINS         CLEAR     74  67  78 CALM      30.19R
$$

WVZ052-270200-
Eastern Panhandle of West Virginia

CITY           SKY/WX    TMP DP  RH WIND       PRES   REMARKS
MARTINSBURG    CLEAR     84  67  56 N5        30.08R
PETERSBURG     CLEAR     77  71  83 W3        30.12R
$$




USA.gov is the U.S. government's official web portal to all federal, state and local government web resources and services.